Weather History for Salt Lake City, UT

Change the Weather History Date:

Monday, September 16, 2013

  Actual Average Record
Temperature  
Mean Temperature 77 °F 66 °F  
Max Temperature 89 °F 79 °F 95 °F (2000)
Min Temperature 65 °F 53 °F 33 °F (1936)
Degree Days  
Heating Degree Days 0 3  
Month to date heating degree days 0 22  
Since 1 July heating degree days 0 27  
Cooling Degree Days 12 3  
Month to date cooling degree days 178 89  
Year to date cooling degree days 1724 1125  
Growing Degree Days 26 (Base 50)    
Moisture  
Dew Point 50 °F    
Average Humidity 44    
Maximum Humidity 63    
Minimum Humidity 24    
Precipitation  
Precipitation 0.00 in 0.04 in 0.89 in (1996)
Month to date precipitation 1.01 0.56  
Year to date precipitation 8.45 11.07  
Snow  
Snow 0.00 in 0.00 in T in (1946)
Month to date snowfall 0.0 0.0  
Since 1 July snowfall 0.0 0.0  
Snow Depth 0.00 in    
Sea Level Pressure  
Sea Level Pressure 29.84 in    
Wind  
Wind Speed 12 mph (SSE)    
Max Wind Speed 18 mph    
Max Gust Speed 23 mph    
Visibility 10 miles    
Events      
T = Trace of Precipitation, MM = Missing Value Source: NWS Daily Summary

Daily Weather History Graph

Daily Weather History Graph

Search for Another Location

Airport:

Trip Planner

Search our weather history database for the weather conditions in past years. The results will help you decide how hot, cold, wet, or windy it might be!

Date:

Astronomy

Sep. 16, 2013 Rise Set
Actual Time 7:09 AM MDT 7:34 PM MDT
Civil Twilight 6:42 AM MDT 8:02 PM MDT
Nautical Twilight 6:09 AM MDT 8:34 PM MDT
Astronomical Twilight 5:36 AM MDT 9:07 PM MDT
Moon 5:46 PM MDT (9/16) 3:59 AM MDT (9/16)
Length of Visible Light 13h 19m
Length of Day
12h 24m
Waxing Gibbous, 90% of the Moon is Illuminated
Sep 16
Waxing Gibbous
Sep 19
Full
Sep 26
Last Quarter
Oct 4
New
Oct 11
First Quarter

Hourly Weather History & Observations

Time (MDT) Temp. Heat Index Dew Point Humidity Pressure Visibility Wind Dir Wind Speed Gust Speed Precip Events Conditions
12:53 AM 68.0 °F - 51.1 °F 55% 29.88 in 10.0 mi SSE 6.9 mph - N/A   Clear
1:53 AM 66.9 °F - 50.0 °F 54% 29.88 in 10.0 mi SSE 8.1 mph - N/A   Clear
2:53 AM 66.9 °F - 50.0 °F 54% 29.88 in 10.0 mi SSE 9.2 mph - N/A   Clear
3:53 AM 66.0 °F - 51.1 °F 59% 29.88 in 10.0 mi SSE 6.9 mph - N/A   Partly Cloudy
4:53 AM 68.0 °F - 53.1 °F 59% 29.88 in 10.0 mi SSE 12.7 mph - N/A   Partly Cloudy
5:53 AM 68.0 °F - 53.1 °F 59% 29.87 in 10.0 mi SSE 12.7 mph - N/A   Scattered Clouds
6:53 AM 68.0 °F - 52.0 °F 56% 29.90 in 10.0 mi SE 13.8 mph - N/A   Mostly Cloudy
7:53 AM 68.0 °F - 52.0 °F 56% 29.91 in 10.0 mi SSE 10.4 mph - 0.00 in   Mostly Cloudy
8:53 AM 69.1 °F - 53.1 °F 57% 29.91 in 10.0 mi SE 10.4 mph - N/A   Mostly Cloudy
9:53 AM 73.9 °F - 54.0 °F 50% 29.92 in 10.0 mi SE 13.8 mph - N/A   Scattered Clouds
10:53 AM 73.9 °F - 52.0 °F 46% 29.91 in 10.0 mi SE 13.8 mph - N/A   Scattered Clouds
11:53 AM 80.1 °F 80.0 °F 54.0 °F 40% 29.89 in 10.0 mi SE 15.0 mph - N/A   Scattered Clouds
12:53 PM 84.9 °F - 50.0 °F 30% 29.87 in 10.0 mi South 16.1 mph - N/A   Scattered Clouds
1:53 PM 86.0 °F - 48.9 °F 28% 29.86 in 10.0 mi South 17.3 mph 23.0 mph N/A   Scattered Clouds
2:53 PM 88.0 °F - 48.0 °F 25% 29.81 in 10.0 mi South 16.1 mph 21.9 mph N/A   Scattered Clouds
3:53 PM 89.1 °F - 48.0 °F 24% 29.79 in 10.0 mi South 10.4 mph - N/A   Scattered Clouds
4:53 PM 88.0 °F - 46.9 °F 24% 29.77 in 10.0 mi SSE 8.1 mph - N/A   Mostly Cloudy
5:53 PM 89.1 °F - 46.0 °F 22% 29.75 in 10.0 mi South 10.4 mph - N/A   Scattered Clouds
6:53 PM 86.0 °F - 46.0 °F 25% 29.74 in 10.0 mi South 8.1 mph - N/A   Scattered Clouds
7:53 PM 79.0 °F - 50.0 °F 36% 29.75 in 10.0 mi WSW 4.6 mph - N/A   Scattered Clouds
8:53 PM 75.9 °F - 50.0 °F 40% 29.77 in 10.0 mi ESE 8.1 mph - N/A   Partly Cloudy
9:53 PM 73.9 °F - 48.9 °F 41% 29.77 in 10.0 mi SE 8.1 mph - N/A   Partly Cloudy
10:53 PM 73.9 °F - 46.9 °F 38% 29.77 in 10.0 mi SE 8.1 mph - N/A   Scattered Clouds
11:53 PM 75.9 °F - 50.0 °F 40% 29.75 in 10.0 mi SSE 12.7 mph - N/A   Scattered Clouds